Regional Weather Roundup
Issued by NWS Charleston, WV

Current Version | Previous Version | Text Only | Print | Product List | Glossary On
Versions: 1 2 3 4 5 6 7 8 9 10 11 12 13 14 15 16 17 18 19 20 21 22 23 24 25 26 27 28 29 30 31 32 33 34 35 36 37 38 39 40 41 42 43 44 45 46 47 48 49 50
000
ASUS41 KRLX 151010
RWRRLX
Regional Weather Roundup
National Weather Service Charleston WV
600 AM EDT WED AUG 15 2018

Note: "fair" indicates few or no clouds below 12,000 feet with no
significant weather and/or obstructions to visibility.

WVZ003-151100-
Northern Panhandle of West Virginia

CITY           SKY/WX    TMP DP  RH WIND       PRES   REMARKS
WHEELING       FAIR      66  63  90 SW5       30.04R
$$

WVZ009-151100-
Northwest West Virginia

CITY           SKY/WX    TMP DP  RH WIND       PRES   REMARKS
PARKERSBURG    FAIR      64  61  90 CALM      30.08R
$$

WVZ006-151100-
Western West Virginia

CITY           SKY/WX    TMP DP  RH WIND       PRES   REMARKS
HUNTINGTON     FAIR      66  63  90 CALM      30.05R
$$

WVZ015-151100-
West Central West Virginia

CITY           SKY/WX    TMP DP  RH WIND       PRES   REMARKS
CHARLESTON     FAIR      63  63 100 CALM      30.05S
$$

WVZ022-031-151100-
North Central West Virginia

CITY           SKY/WX    TMP DP  RH WIND       PRES   REMARKS
MORGANTOWN     FAIR      64  63  96 CALM      30.07R
CLARKSBURG     FAIR      64  61  90 CALM      30.07R
BUCKHANNON     FAIR      61  61 100 CALM      30.08S
$$

WVZ025-035-042-045-151100-
Southern West Virginia

CITY           SKY/WX    TMP DP  RH WIND       PRES   REMARKS
BECKLEY        FAIR      59  55  87 CALM      30.14S
LOGAN          FOG       63  63 100 CALM      30.10R VSB 3/4
PINEVILLE      FOG       61  60  97 MISG      30.16S VSB 1/4
BLUEFIELD      FAIR      61  58  90 W6        30.16S
LEWISBURG      FOG       56  56  99 CALM      30.14S VSB 1/2
$$

WVZ047-151100-
Northern Mountains of West Virginia

CITY           SKY/WX    TMP DP  RH WIND       PRES   REMARKS
ELKINS         CLOUDY    57  56  96 CALM      30.12R FOG
$$

WVZ052-151100-
Eastern Panhandle of West Virginia

CITY           SKY/WX    TMP DP  RH WIND       PRES   REMARKS
MARTINSBURG    FAIR      63  63 100 CALM      29.99R FOG
PETERSBURG     FOG       60  60 100 CALM      30.05R VSB 1/2
$$

Southeast Ohio/Northeast Kentucky

CITY           SKY/WX    TMP DP  RH WIND       PRES   REMARKS
ATHENS         FAIR      63  63 100 CALM      30.04R FOG
ASHLAND        FAIR      66  65  96 CALM      30.05R
$$



USA.gov is the U.S. government's official web portal to all federal, state and local government web resources and services.